Location: Grossmotten
(48.5500°N, 15.3833°E)
Time: 04:21:07
(UTC+00:00)

Helios 1A Rocket - Visible Passes

Search period start: 28 February 2020 00:00
Search period end: 09 March 2020 00:00
Orbit: 564 x 586 km, 98.3° (Epoch: 27 February)

Date Brightness Start Highest point End Pass type
(mag) Time Alt. Az. Time Alt. Az. Time Alt. Az.
28 Feb 3.2 05:08:21 10° NNE 05:12:30 76° ESE 05:16:36 10° S visible
02 Mar 6.7 03:46:46 10° E 03:47:18 10° E 03:47:50 10° E visible
03 Mar 6.5 03:49:40 10° ENE 03:50:52 11° E 03:52:05 10° ESE visible
04 Mar 6.4 03:52:50 10° ENE 03:54:26 12° E 03:56:03 10° ESE visible
05 Mar 6.3 03:56:05 10° ENE 03:58:00 13° E 03:59:55 10° ESE visible
06 Mar 6.3 03:59:23 10° ENE 04:01:34 14° E 04:03:43 10° ESE visible
07 Mar 6.2 04:02:44 10° NE 04:05:08 15° E 04:07:30 10° SE visible
08 Mar 6.1 04:06:07 10° NE 04:08:42 16° E 04:11:15 10° SE visible
